When you browse on this site, cookies collect data to enhance your experience and personalize the content and advertising you see.
Visit our Privacy Policy to learn more. By continuing to use the site, you agree to this use of cookies and data.
  • In Sweden
  • List of Countries
  • For 7 days
  • Water Temperature
  • Weather Map
  • Weather Widgets
  • user-avatar
    Login

    Hourly Weather Marrakesh

    Today, 18 February, Tuesday

    Time Temperature Precipitation Wind Pressure Humidity
    00:00 +16°C° 0 mm 1 mps 728 mmHg 61%
    01:00 +15°C° 0 mm 1 mps 728 mmHg 61%
    02:00 +15°C° 0 mm 1 mps 727 mmHg 60%
    03:00 +14°C° 0 mm 1 mps 727 mmHg 62%
    04:00 +14°C° 0 mm 1 mps 727 mmHg 65%
    05:00 +13°C° 0 mm 1 mps 727 mmHg 67%
    06:00 +14°C° 0 mm 1 mps 728 mmHg 62%
    07:00 +16°C° 0 mm 1 mps 728 mmHg 56%
    08:00 +18°C° 0 mm 1 mps 729 mmHg 51%
    09:00 +20°C° 0 mm 1 mps 729 mmHg 45%
    10:00 +22°C° 0 mm 1 mps 728 mmHg 39%
    11:00 +24°C° 0 mm 2 mps 728 mmHg 32%
    12:00 +25°C° 0 mm 2 mps 728 mmHg 29%
    13:00 +26°C° 0 mm 3 mps 728 mmHg 26%
    14:00 +27°C° 0 mm 3 mps 727 mmHg 23%
    15:00 +26°C° 0 mm 4 mps 727 mmHg 27%
    16:00 +25°C° 0 mm 4 mps 727 mmHg 30%
    17:00 +23°C° 0 mm 5 mps 727 mmHg 34%
    18:00 +21°C° 0 mm 4 mps 727 mmHg 48%
    19:00 +19°C° 0 mm 3 mps 727 mmHg 62%
    20:00 +17°C° 0 mm 3 mps 728 mmHg 76%
    21:00 +16°C° 0 mm 2 mps 727 mmHg 80%
    22:00 +15°C° 0 mm 2 mps 727 mmHg 84%
    23:00 +15°C° 0 mm 2 mps 727 mmHg 88%

    Tomorrow, 19 February, Wednesday

    Time Temperature Precipitation Wind Pressure Humidity
    00:00 +14°C° 0 mm 1 mps 727 mmHg 89%
    01:00 +14°C° 0 mm 1 mps 726 mmHg 90%
    02:00 +14°C° 0 mm 1 mps 726 mmHg 90%
    03:00 +13°C° 0 mm 1 mps 726 mmHg 91%
    04:00 +13°C° 0 mm 1 mps 725 mmHg 91%
    05:00 +13°C° 0 mm 1 mps 725 mmHg 92%
    06:00 +13°C° 0 mm 1 mps 725 mmHg 87%
    07:00 +14°C° 0 mm 1 mps 725 mmHg 82%
    08:00 +15°C° 0 mm 1 mps 726 mmHg 77%
    09:00 +18°C° 0 mm 1 mps 726 mmHg 67%
    10:00 +19°C° 0 mm 2 mps 726 mmHg 56%
    11:00 +21°C° 0 mm 2 mps 725 mmHg 46%
    12:00 +23°C° 0 mm 2 mps 725 mmHg 41%
    13:00 +24°C° 0 mm 2 mps 725 mmHg 37%
    14:00 +25°C° 0 mm 2 mps 724 mmHg 32%
    15:00 +25°C° 0.1 mm 2 mps 724 mmHg 32%
    16:00 +24°C° 0.1 mm 2 mps 724 mmHg 33%
    17:00 +24°C° 0.1 mm 2 mps 724 mmHg 34%
    18:00 +21°C° 0.2 mm 2 mps 724 mmHg 42%
    19:00 +19°C° 0.2 mm 2 mps 724 mmHg 50%
    20:00 +19°C° 0.2 mm 1 mps 725 mmHg 58%
    21:00 +18°C° 0 mm 1 mps 724 mmHg 60%
    22:00 +18°C° 0 mm 1 mps 724 mmHg 61%
    23:00 +16°C° 0 mm 1 mps 724 mmHg 63%

    Day after tomorrow, 20 February, Thursday

    Time Temperature Precipitation Wind Pressure Humidity
    00:00 +16°C° 0 mm 1 mps 724 mmHg 63%
    01:00 +16°C° 0 mm 1 mps 724 mmHg 63%
    02:00 +15°C° 0 mm 1 mps 723 mmHg 63%
    03:00 +15°C° 0 mm 1 mps 723 mmHg 67%
    04:00 +14°C° 0 mm 1 mps 723 mmHg 70%
    05:00 +14°C° 0 mm 1 mps 723 mmHg 73%
    06:00 +15°C° 0 mm 1 mps 723 mmHg 71%
    07:00 +15°C° 0 mm 1 mps 724 mmHg 69%
    08:00 +16°C° 0 mm 1 mps 724 mmHg 67%
    09:00 +18°C° 0 mm 2 mps 724 mmHg 61%
    10:00 +19°C° 0 mm 3 mps 724 mmHg 55%
    11:00 +21°C° 0 mm 4 mps 725 mmHg 49%
    12:00 +21°C° 0.1 mm 4 mps 724 mmHg 47%
    13:00 +22°C° 0.1 mm 5 mps 723 mmHg 44%
    14:00 +22°C° 0.1 mm 5 mps 723 mmHg 42%
    15:00 +21°C° 0.2 mm 5 mps 723 mmHg 45%
    16:00 +20°C° 0.2 mm 6 mps 723 mmHg 48%
    17:00 +19°C° 0.2 mm 6 mps 723 mmHg 50%
    18:00 +17°C° 0.1 mm 5 mps 723 mmHg 58%
    19:00 +15°C° 0.1 mm 4 mps 723 mmHg 65%
    20:00 +14°C° 0.1 mm 3 mps 723 mmHg 72%
    21:00 +13°C° 0 mm 3 mps 723 mmHg 77%
    22:00 +14°C° 0 mm 2 mps 723 mmHg 81%
    23:00 +13°C° 0 mm 2 mps 723 mmHg 85%

    21 February, Friday

    Time Temperature Precipitation Wind Pressure Humidity
    00:00 +13°C° 0 mm 1 mps 723 mmHg 87%
    01:00 +12°C° 0 mm 1 mps 722 mmHg 89%
    02:00 +11°C° 0 mm 0 mps 722 mmHg 91%
    03:00 +10°C° 0 mm 0 mps 722 mmHg 91%
    04:00 +10°C° 0 mm 0 mps 721 mmHg 91%
    05:00 +10°C° 0 mm 0 mps 721 mmHg 91%
    12:00 +18°C° 0 mm 3 mps 723 mmHg 53%
    13:00 +19°C° 0 mm 3 mps 722 mmHg 50%
    14:00 +19°C° 0 mm 4 mps 722 mmHg 47%
    15:00 +19°C° 0.1 mm 4 mps 722 mmHg 47%
    16:00 +19°C° 0.1 mm 3 mps 722 mmHg 48%
    17:00 +19°C° 0.1 mm 3 mps 722 mmHg 49%
    18:00 +18°C° 0.7 mm 3 mps 723 mmHg 58%
    19:00 +16°C° 0.7 mm 3 mps 723 mmHg 67%
    20:00 +15°C° 0.7 mm 2 mps 723 mmHg 76%
    21:00 +15°C° 0.1 mm 2 mps 723 mmHg 79%
    22:00 +14°C° 0.1 mm 2 mps 723 mmHg 82%
    23:00 +14°C° 0.1 mm 1 mps 723 mmHg 85%

    22 February, Saturday

    Time Temperature Precipitation Wind Pressure Humidity
    00:00 +13°C° 0 mm 1 mps 723 mmHg 84%
    01:00 +13°C° 0 mm 1 mps 723 mmHg 84%
    02:00 +12°C° 0 mm 1 mps 723 mmHg 83%
    03:00 +13°C° 0 mm 1 mps 723 mmHg 71%
    04:00 +13°C° 0 mm 2 mps 723 mmHg 59%
    05:00 +14°C° 0 mm 2 mps 723 mmHg 47%
    06:00 +14°C° 0 mm 3 mps 724 mmHg 41%
    07:00 +17°C° 0 mm 3 mps 725 mmHg 35%
    08:00 +19°C° 0 mm 3 mps 725 mmHg 28%
    09:00 +21°C° 0 mm 3 mps 725 mmHg 25%
    10:00 +22°C° 0 mm 3 mps 725 mmHg 21%
    11:00 +25°C° 0 mm 3 mps 726 mmHg 17%
    12:00 +26°C° 0 mm 3 mps 725 mmHg 16%
    13:00 +26°C° 0 mm 3 mps 725 mmHg 14%
    14:00 +27°C° 0 mm 2 mps 724 mmHg 13%
    15:00 +26°C° 0 mm 3 mps 724 mmHg 14%
    16:00 +26°C° 0 mm 4 mps 724 mmHg 15%
    17:00 +25°C° 0 mm 4 mps 724 mmHg 16%
    18:00 +23°C° 0 mm 4 mps 725 mmHg 19%
    19:00 +21°C° 0 mm 5 mps 725 mmHg 22%
    20:00 +20°C° 0 mm 5 mps 725 mmHg 24%
    21:00 +19°C° 0 mm 4 mps 726 mmHg 25%
    22:00 +19°C° 0 mm 3 mps 726 mmHg 26%
    23:00 +18°C° 0 mm 3 mps 726 mmHg 27%

    23 February, Sunday

    Time Temperature Precipitation Wind Pressure Humidity
    00:00 +18°C° 0 mm 3 mps 725 mmHg 27%
    01:00 +18°C° 0 mm 4 mps 725 mmHg 28%
    02:00 +17°C° 0 mm 5 mps 725 mmHg 29%
    03:00 +18°C° 0 mm 4 mps 725 mmHg 29%
    04:00 +18°C° 0 mm 4 mps 725 mmHg 29%
    05:00 +18°C° 0 mm 3 mps 725 mmHg 29%
    06:00 +19°C° 0 mm 4 mps 725 mmHg 28%
    07:00 +20°C° 0 mm 4 mps 725 mmHg 26%
    08:00 +21°C° 0 mm 4 mps 726 mmHg 25%
    09:00 +23°C° 0 mm 4 mps 726 mmHg 23%
    10:00 +26°C° 0 mm 4 mps 727 mmHg 21%
    11:00 +28°C° 0 mm 4 mps 727 mmHg 19%
    12:00 +27°C° 0 mm 4 mps 727 mmHg 21%
    13:00 +26°C° 0 mm 3 mps 726 mmHg 24%
    14:00 +26°C° 0 mm 3 mps 726 mmHg 26%
    15:00 +25°C° 0 mm 3 mps 726 mmHg 28%
    16:00 +25°C° 0 mm 3 mps 726 mmHg 30%
    17:00 +24°C° 0 mm 2 mps 726 mmHg 31%
    18:00 +24°C° 0 mm 3 mps 726 mmHg 32%
    19:00 +22°C° 0 mm 5 mps 726 mmHg 32%
    20:00 +21°C° 0 mm 6 mps 727 mmHg 32%
    21:00 +21°C° 0 mm 6 mps 727 mmHg 31%
    22:00 +21°C° 0 mm 6 mps 726 mmHg 29%
    23:00 +20°C° 0 mm 6 mps 726 mmHg 28%
    Show more